• en France
  • Liste des pays
  • À 7 jours
  • Température de l'eau
  • Carte satellitaire
  • Carte météo
  • Widgets météo
  • user-avatar
    Se connecter

    Météo par heure à Bondoukou

    Ce jour, 16 Octobre, Mardi

    Heure Température Précipitation Vent Pression Humidité
    00:00 +23°C° 2.3 mm 0 m/s 729 mmHg 93%
    01:00 +22°C° 0.4 mm 0 m/s 729 mmHg 93%
    02:00 +22°C° 0.4 mm 0 m/s 729 mmHg 92%
    03:00 +22°C° 0.4 mm 0 m/s 729 mmHg 92%
    04:00 +22°C° 0 mm 0 m/s 729 mmHg 92%
    05:00 +22°C° 0 mm 0 m/s 729 mmHg 92%
    06:00 +22°C° 0 mm 0 m/s 729 mmHg 93%
    07:00 +23°C° 0.1 mm 0 m/s 730 mmHg 89%
    08:00 +25°C° 0.1 mm 0 m/s 730 mmHg 85%
    09:00 +28°C° 0.1 mm 1 m/s 731 mmHg 81%
    10:00 +30°C° 0 mm 1 m/s 730 mmHg 73%
    11:00 +31°C° 0 mm 2 m/s 730 mmHg 65%
    12:00 +34°C° 0 mm 2 m/s 730 mmHg 58%
    13:00 +34°C° 0.1 mm 2 m/s 729 mmHg 57%
    14:00 +34°C° 0.1 mm 2 m/s 728 mmHg 56%
    15:00 +34°C° 0.1 mm 2 m/s 728 mmHg 55%
    16:00 +32°C° 0.1 mm 2 m/s 728 mmHg 62%
    17:00 +30°C° 0.1 mm 2 m/s 728 mmHg 69%
    18:00 +28°C° 0.1 mm 1 m/s 728 mmHg 77%
    19:00 +27°C° 0.7 mm 1 m/s 729 mmHg 81%
    20:00 +26°C° 0.7 mm 1 m/s 729 mmHg 85%
    21:00 +25°C° 0.7 mm 2 m/s 730 mmHg 88%
    22:00 +25°C° 0.3 mm 2 m/s 730 mmHg 91%
    23:00 +25°C° 0.3 mm 2 m/s 730 mmHg 93%

    Demain, 17 Octobre, Mercredi

    Heure Température Précipitation Vent Pression Humidité
    00:00 +24°C° 0.3 mm 1 m/s 730 mmHg 95%
    01:00 +24°C° 0 mm 1 m/s 729 mmHg 95%
    02:00 +24°C° 0 mm 2 m/s 729 mmHg 96%
    03:00 +24°C° 0 mm 2 m/s 728 mmHg 97%
    04:00 +24°C° 0 mm 2 m/s 729 mmHg 97%
    05:00 +24°C° 0 mm 2 m/s 729 mmHg 97%
    06:00 +24°C° 0 mm 2 m/s 729 mmHg 97%
    07:00 +24°C° 0 mm 2 m/s 729 mmHg 94%
    08:00 +25°C° 0 mm 2 m/s 730 mmHg 92%
    09:00 +26°C° 0 mm 2 m/s 730 mmHg 89%
    10:00 +27°C° 0 mm 2 m/s 730 mmHg 83%
    11:00 +29°C° 0 mm 2 m/s 729 mmHg 78%
    12:00 +30°C° 0 mm 2 m/s 729 mmHg 72%
    13:00 +30°C° 0 mm 2 m/s 728 mmHg 70%
    14:00 +31°C° 0 mm 2 m/s 728 mmHg 68%
    15:00 +31°C° 0 mm 2 m/s 727 mmHg 65%
    16:00 +30°C° 0.1 mm 1 m/s 727 mmHg 71%
    17:00 +29°C° 0.1 mm 1 m/s 727 mmHg 77%
    18:00 +27°C° 0.1 mm 1 m/s 727 mmHg 83%
    19:00 +27°C° 0.4 mm 1 m/s 728 mmHg 86%
    20:00 +26°C° 0.4 mm 1 m/s 729 mmHg 88%
    21:00 +25°C° 0.4 mm 1 m/s 729 mmHg 90%
    22:00 +25°C° 0.2 mm 1 m/s 729 mmHg 91%
    23:00 +25°C° 0.2 mm 1 m/s 729 mmHg 92%

    Après-demain, 18 Octobre, Jeudi

    Heure Température Précipitation Vent Pression Humidité
    00:00 +24°C° 0.2 mm 2 m/s 729 mmHg 93%
    01:00 +24°C° 0 mm 2 m/s 728 mmHg 94%
    02:00 +24°C° 0 mm 2 m/s 728 mmHg 95%
    03:00 +24°C° 0 mm 2 m/s 728 mmHg 96%
    04:00 +23°C° 0 mm 2 m/s 728 mmHg 97%
    05:00 +23°C° 0 mm 2 m/s 728 mmHg 97%
    06:00 +23°C° 0 mm 1 m/s 728 mmHg 98%
    07:00 +24°C° 0 mm 1 m/s 729 mmHg 93%
    08:00 +26°C° 0 mm 2 m/s 729 mmHg 88%
    09:00 +27°C° 0 mm 2 m/s 730 mmHg 83%
    10:00 +29°C° 0.1 mm 2 m/s 729 mmHg 76%
    11:00 +30°C° 0.1 mm 2 m/s 728 mmHg 69%
    12:00 +32°C° 0.1 mm 2 m/s 728 mmHg 63%
    13:00 +32°C° 0 mm 2 m/s 727 mmHg 62%
    14:00 +32°C° 0 mm 2 m/s 726 mmHg 61%
    15:00 +34°C° 0 mm 2 m/s 725 mmHg 60%
    16:00 +31°C° 0 mm 2 m/s 725 mmHg 66%
    17:00 +30°C° 0 mm 1 m/s 725 mmHg 73%
    18:00 +28°C° 0 mm 1 m/s 726 mmHg 80%
    19:00 +27°C° 0.1 mm 1 m/s 726 mmHg 83%
    20:00 +27°C° 0.1 mm 1 m/s 727 mmHg 86%
    21:00 +26°C° 0.1 mm 1 m/s 728 mmHg 90%
    22:00 +25°C° 0.1 mm 1 m/s 728 mmHg 91%
    23:00 +25°C° 0.1 mm 2 m/s 728 mmHg 93%

    19 Octobre, Vendredi

    Heure Température Précipitation Vent Pression Humidité
    00:00 +25°C° 0.1 mm 2 m/s 728 mmHg 94%
    01:00 +24°C° 0.1 mm 2 m/s 728 mmHg 95%
    02:00 +24°C° 0.1 mm 2 m/s 727 mmHg 96%
    03:00 +24°C° 0.1 mm 2 m/s 727 mmHg 97%
    04:00 +24°C° 0 mm 2 m/s 727 mmHg 97%
    05:00 +24°C° 0 mm 2 m/s 728 mmHg 96%
    06:00 +24°C° 0 mm 2 m/s 728 mmHg 96%
    07:00 +25°C° 0 mm 2 m/s 728 mmHg 93%
    08:00 +25°C° 0 mm 2 m/s 729 mmHg 91%
    09:00 +26°C° 0 mm 2 m/s 729 mmHg 88%
    10:00 +27°C° 0 mm 2 m/s 729 mmHg 82%
    11:00 +29°C° 0 mm 2 m/s 728 mmHg 77%
    12:00 +30°C° 0 mm 2 m/s 728 mmHg 71%
    13:00 +31°C° 0 mm 1 m/s 727 mmHg 68%
    14:00 +32°C° 0 mm 1 m/s 726 mmHg 65%
    15:00 +32°C° 0 mm 1 m/s 726 mmHg 62%
    16:00 +31°C° 0 mm 1 m/s 726 mmHg 68%
    17:00 +29°C° 0 mm 1 m/s 726 mmHg 74%
    18:00 +28°C° 0 mm 1 m/s 726 mmHg 79%
    19:00 +27°C° 0 mm 1 m/s 727 mmHg 82%
    20:00 +27°C° 0 mm 1 m/s 727 mmHg 85%
    21:00 +26°C° 0 mm 1 m/s 728 mmHg 87%
    22:00 +26°C° 0 mm 1 m/s 728 mmHg 88%
    23:00 +25°C° 0 mm 1 m/s 727 mmHg 89%

    20 Octobre, Samedi

    Heure Température Précipitation Vent Pression Humidité
    00:00 +25°C° 0 mm 1 m/s 727 mmHg 90%
    01:00 +25°C° 0 mm 1 m/s 727 mmHg 92%
    02:00 +24°C° 0 mm 1 m/s 727 mmHg 93%
    03:00 +24°C° 0 mm 1 m/s 726 mmHg 95%
    04:00 +24°C° 0 mm 1 m/s 727 mmHg 96%
    05:00 +24°C° 0 mm 1 m/s 727 mmHg 96%
    06:00 +24°C° 0 mm 1 m/s 728 mmHg 97%
    07:00 +25°C° 0 mm 1 m/s 728 mmHg 92%
    08:00 +26°C° 0 mm 1 m/s 729 mmHg 87%
    09:00 +28°C° 0 mm 2 m/s 729 mmHg 81%
    10:00 +29°C° 0 mm 1 m/s 728 mmHg 76%
    11:00 +31°C° 0 mm 1 m/s 728 mmHg 70%
    12:00 +32°C° 0 mm 1 m/s 727 mmHg 65%
    13:00 +32°C° 0.5 mm 1 m/s 727 mmHg 66%
    14:00 +30°C° 0.5 mm 0 m/s 726 mmHg 66%
    15:00 +30°C° 0.5 mm 0 m/s 725 mmHg 67%
    16:00 +29°C° 0.5 mm 0 m/s 726 mmHg 73%
    17:00 +27°C° 0.5 mm 0 m/s 726 mmHg 79%
    18:00 +27°C° 0.5 mm 1 m/s 726 mmHg 85%
    19:00 +27°C° 0.1 mm 1 m/s 726 mmHg 87%
    20:00 +26°C° 0.1 mm 1 m/s 727 mmHg 89%
    21:00 +26°C° 0.1 mm 1 m/s 727 mmHg 91%
    22:00 +25°C° 0.6 mm 1 m/s 727 mmHg 92%
    23:00 +25°C° 0.6 mm 1 m/s 727 mmHg 93%

    21 Octobre, Dimanche

    Heure Température Précipitation Vent Pression Humidité
    00:00 +25°C° 0.6 mm 1 m/s 727 mmHg 93%
    01:00 +25°C° 0 mm 1 m/s 726 mmHg 94%
    02:00 +24°C° 0 mm 1 m/s 726 mmHg 94%
    03:00 +24°C° 0 mm 1 m/s 726 mmHg 94%
    04:00 +24°C° 0 mm 1 m/s 726 mmHg 95%
    05:00 +24°C° 0 mm 1 m/s 726 mmHg 95%
    06:00 +23°C° 0 mm 1 m/s 727 mmHg 96%
    07:00 +25°C° 0 mm 1 m/s 727 mmHg 91%
    08:00 +26°C° 0 mm 1 m/s 728 mmHg 86%
    09:00 +28°C° 0 mm 2 m/s 728 mmHg 81%
    10:00 +30°C° 0 mm 1 m/s 728 mmHg 73%
    11:00 +32°C° 0 mm 1 m/s 727 mmHg 65%
    12:00 +34°C° 0 mm 1 m/s 726 mmHg 57%
    13:00 +34°C° 0 mm 1 m/s 726 mmHg 57%
    14:00 +34°C° 0 mm 1 m/s 725 mmHg 57%
    15:00 +34°C° 0 mm 1 m/s 725 mmHg 57%
    16:00 +32°C° 0.1 mm 1 m/s 725 mmHg 63%
    17:00 +31°C° 0.1 mm 1 m/s 725 mmHg 69%
    18:00 +29°C° 0.1 mm 1 m/s 725 mmHg 75%
    19:00 +28°C° 0 mm 1 m/s 726 mmHg 77%
    20:00 +28°C° 0 mm 1 m/s 726 mmHg 79%
    21:00 +25°C° 0 mm 0 m/s 726 mmHg 80%
    22:00 +25°C° 0 mm 0 m/s 726 mmHg 81%
    23:00 +26°C° 0 mm 1 m/s 726 mmHg 81%
    Voir plus